When you browse on this site, cookies collect data to enhance your experience and personalize the content and advertising you see.
Visit our Privacy Policy to learn more. By continuing to use the site, you agree to this use of cookies and data.
  • en France
  • Liste des pays
  • À 7 jours
  • Température de l'eau
  • Carte satellitaire
  • Carte météo
  • Widgets météo
  • user-avatar
    Se connecter

    Météo par heure à Albany

    Ce jour, 17 Juillet, Mercredi

    Heure Température Précipitation Vent Pression Humidité
    00:00 +11°C° 0 mm 3 m/s 765 mmHg 89%
    01:00 +10°C° 0 mm 3 m/s 764 mmHg 90%
    02:00 +10°C° 0 mm 3 m/s 764 mmHg 90%
    03:00 +10°C° 0 mm 3 m/s 764 mmHg 91%
    04:00 +10°C° 0 mm 3 m/s 763 mmHg 91%
    05:00 +10°C° 0 mm 3 m/s 763 mmHg 92%
    06:00 +9°C° 0 mm 3 m/s 763 mmHg 89%
    07:00 +8°C° 0 mm 4 m/s 763 mmHg 87%
    08:00 +8°C° 0 mm 4 m/s 763 mmHg 81%
    09:00 +12°C° 0 mm 4 m/s 762 mmHg 74%
    10:00 +14°C° 0 mm 5 m/s 762 mmHg 67%
    11:00 +16°C° 0 mm 5 m/s 762 mmHg 60%
    12:00 +17°C° 0 mm 5 m/s 761 mmHg 57%
    13:00 +17°C° 0 mm 5 m/s 760 mmHg 55%
    14:00 +19°C° 0 mm 5 m/s 759 mmHg 52%
    15:00 +17°C° 0 mm 5 m/s 759 mmHg 58%
    16:00 +17°C° 0 mm 5 m/s 759 mmHg 65%
    17:00 +17°C° 0 mm 4 m/s 759 mmHg 71%
    18:00 +15°C° 0 mm 5 m/s 759 mmHg 75%
    19:00 +14°C° 0 mm 5 m/s 759 mmHg 79%
    20:00 +13°C° 0 mm 5 m/s 760 mmHg 83%
    21:00 +14°C° 0.1 mm 6 m/s 760 mmHg 83%
    22:00 +14°C° 0.1 mm 6 m/s 760 mmHg 83%
    23:00 +15°C° 0.1 mm 6 m/s 760 mmHg 83%

    Demain, 18 Juillet, Jeudi

    Heure Température Précipitation Vent Pression Humidité
    00:00 +14°C° 0.1 mm 5 m/s 760 mmHg 85%
    01:00 +14°C° 0.1 mm 5 m/s 760 mmHg 87%
    02:00 +14°C° 0.1 mm 5 m/s 760 mmHg 89%
    03:00 +13°C° 0 mm 4 m/s 760 mmHg 87%
    04:00 +13°C° 0 mm 4 m/s 760 mmHg 86%
    05:00 +13°C° 0 mm 3 m/s 760 mmHg 84%
    06:00 +12°C° 0 mm 3 m/s 760 mmHg 83%
    07:00 +12°C° 0 mm 3 m/s 761 mmHg 82%
    08:00 +13°C° 0 mm 2 m/s 761 mmHg 82%
    09:00 +13°C° 0 mm 3 m/s 761 mmHg 76%
    10:00 +13°C° 0 mm 3 m/s 761 mmHg 71%
    11:00 +14°C° 0 mm 3 m/s 761 mmHg 65%
    12:00 +16°C° 0 mm 3 m/s 760 mmHg 63%
    13:00 +16°C° 0 mm 3 m/s 759 mmHg 62%
    14:00 +17°C° 0 mm 3 m/s 758 mmHg 60%
    15:00 +16°C° 0 mm 3 m/s 758 mmHg 64%
    16:00 +14°C° 0 mm 3 m/s 758 mmHg 68%
    17:00 +14°C° 0 mm 3 m/s 758 mmHg 72%
    18:00 +14°C° 0 mm 3 m/s 757 mmHg 73%
    19:00 +14°C° 0 mm 3 m/s 757 mmHg 74%
    20:00 +13°C° 0 mm 3 m/s 757 mmHg 74%
    21:00 +13°C° 0 mm 3 m/s 756 mmHg 79%
    22:00 +13°C° 0 mm 4 m/s 756 mmHg 84%
    23:00 +12°C° 0 mm 4 m/s 755 mmHg 89%

    Après-demain, 19 Juillet, Vendredi

    Heure Température Précipitation Vent Pression Humidité
    00:00 +12°C° 0 mm 4 m/s 755 mmHg 91%
    01:00 +12°C° 0 mm 5 m/s 754 mmHg 92%
    02:00 +10°C° 0 mm 5 m/s 753 mmHg 94%
    03:00 +10°C° 0 mm 5 m/s 753 mmHg 93%
    04:00 +12°C° 0 mm 5 m/s 752 mmHg 92%
    05:00 +12°C° 0 mm 5 m/s 752 mmHg 91%
    06:00 +11°C° 0.1 mm 6 m/s 752 mmHg 91%
    07:00 +11°C° 0.1 mm 6 m/s 751 mmHg 90%
    08:00 +11°C° 0.1 mm 6 m/s 751 mmHg 89%
    09:00 +14°C° 0 mm 7 m/s 751 mmHg 79%
    10:00 +15°C° 0 mm 8 m/s 750 mmHg 70%
    11:00 +16°C° 0 mm 9 m/s 750 mmHg 60%
    12:00 +15°C° 0.3 mm 9 m/s 749 mmHg 66%
    13:00 +13°C° 0.3 mm 9 m/s 748 mmHg 73%
    14:00 +13°C° 0.3 mm 9 m/s 747 mmHg 80%
    15:00 +12°C° 2.4 mm 8 m/s 747 mmHg 84%
    16:00 +11°C° 2.4 mm 7 m/s 748 mmHg 88%
    17:00 +9°C° 2.4 mm 6 m/s 748 mmHg 92%
    18:00 +9°C° 1.6 mm 6 m/s 749 mmHg 91%
    19:00 +9°C° 1.6 mm 6 m/s 750 mmHg 90%
    20:00 +8°C° 1.6 mm 6 m/s 750 mmHg 90%
    21:00 +8°C° 0.4 mm 6 m/s 750 mmHg 89%
    22:00 +8°C° 0.4 mm 6 m/s 751 mmHg 88%
    23:00 +6°C° 0.4 mm 7 m/s 751 mmHg 87%

    20 Juillet, Samedi

    Heure Température Précipitation Vent Pression Humidité
    00:00 +6°C° 0.4 mm 7 m/s 752 mmHg 87%
    01:00 +6°C° 0.4 mm 7 m/s 752 mmHg 87%
    02:00 +6°C° 0.4 mm 7 m/s 752 mmHg 87%
    03:00 +6°C° 0.3 mm 7 m/s 753 mmHg 87%
    04:00 +6°C° 0.3 mm 7 m/s 754 mmHg 86%
    05:00 +6°C° 0.3 mm 7 m/s 754 mmHg 85%
    06:00 +6°C° 0.1 mm 7 m/s 755 mmHg 84%
    07:00 +6°C° 0.1 mm 7 m/s 756 mmHg 83%
    08:00 +8°C° 0.1 mm 7 m/s 757 mmHg 82%
    09:00 +9°C° 0.1 mm 7 m/s 757 mmHg 78%
    10:00 +10°C° 0.1 mm 7 m/s 758 mmHg 75%
    11:00 +11°C° 0.1 mm 7 m/s 758 mmHg 71%
    12:00 +11°C° 0 mm 7 m/s 758 mmHg 70%
    13:00 +11°C° 0 mm 7 m/s 758 mmHg 69%
    14:00 +11°C° 0 mm 7 m/s 757 mmHg 67%
    15:00 +11°C° 0.1 mm 7 m/s 758 mmHg 71%
    16:00 +11°C° 0.1 mm 6 m/s 758 mmHg 74%
    17:00 +10°C° 0.1 mm 6 m/s 758 mmHg 77%
    18:00 +10°C° 0 mm 6 m/s 758 mmHg 80%
    19:00 +9°C° 0 mm 7 m/s 758 mmHg 83%
    20:00 +8°C° 0 mm 7 m/s 758 mmHg 85%
    21:00 +9°C° 0.1 mm 8 m/s 757 mmHg 84%
    22:00 +9°C° 0.1 mm 8 m/s 757 mmHg 82%
    23:00 +10°C° 0.1 mm 9 m/s 757 mmHg 80%

    21 Juillet, Dimanche

    Heure Température Précipitation Vent Pression Humidité
    00:00 +10°C° 0.2 mm 9 m/s 756 mmHg 81%
    01:00 +11°C° 0.2 mm 9 m/s 756 mmHg 81%
    02:00 +11°C° 0.2 mm 9 m/s 755 mmHg 82%
    03:00 +12°C° 0.1 mm 9 m/s 755 mmHg 82%
    04:00 +12°C° 0.1 mm 9 m/s 754 mmHg 83%
    05:00 +12°C° 0.1 mm 9 m/s 754 mmHg 84%
    06:00 +12°C° 0.2 mm 9 m/s 754 mmHg 84%
    07:00 +12°C° 0.2 mm 10 m/s 754 mmHg 83%
    08:00 +12°C° 0.2 mm 10 m/s 754 mmHg 83%
    09:00 +12°C° 0.2 mm 10 m/s 754 mmHg 81%
    10:00 +13°C° 0.2 mm 10 m/s 754 mmHg 80%
    11:00 +13°C° 0.2 mm 10 m/s 754 mmHg 79%
    12:00 +13°C° 0.2 mm 11 m/s 754 mmHg 78%
    13:00 +13°C° 0.2 mm 11 m/s 753 mmHg 78%
    14:00 +14°C° 0.2 mm 12 m/s 753 mmHg 77%
    15:00 +13°C° 0.1 mm 11 m/s 754 mmHg 75%
    16:00 +12°C° 0.1 mm 11 m/s 754 mmHg 72%
    17:00 +12°C° 0.1 mm 10 m/s 754 mmHg 70%
    18:00 +12°C° 0.1 mm 10 m/s 755 mmHg 71%
    19:00 +11°C° 0.1 mm 10 m/s 755 mmHg 71%
    20:00 +11°C° 0.1 mm 10 m/s 756 mmHg 71%
    21:00 +11°C° 0.1 mm 9 m/s 756 mmHg 71%
    22:00 +10°C° 0.1 mm 9 m/s 756 mmHg 70%
    23:00 +10°C° 0.1 mm 9 m/s 757 mmHg 70%

    22 Juillet, Lundi

    Heure Température Précipitation Vent Pression Humidité
    00:00 +10°C° 0.1 mm 9 m/s 757 mmHg 70%
    01:00 +10°C° 0.1 mm 9 m/s 757 mmHg 71%
    02:00 +9°C° 0.1 mm 8 m/s 757 mmHg 71%
    03:00 +9°C° 0.1 mm 8 m/s 758 mmHg 72%
    04:00 +9°C° 0.1 mm 8 m/s 758 mmHg 72%
    05:00 +9°C° 0.1 mm 8 m/s 758 mmHg 72%
    06:00 +9°C° 0.1 mm 7 m/s 759 mmHg 74%
    07:00 +9°C° 0.1 mm 7 m/s 760 mmHg 75%
    08:00 +9°C° 0.1 mm 6 m/s 760 mmHg 76%
    09:00 +9°C° 0.1 mm 6 m/s 761 mmHg 74%
    10:00 +10°C° 0.1 mm 6 m/s 761 mmHg 72%
    11:00 +10°C° 0.1 mm 6 m/s 762 mmHg 70%
    12:00 +10°C° 0.1 mm 6 m/s 762 mmHg 68%
    13:00 +10°C° 0.1 mm 6 m/s 762 mmHg 67%
    14:00 +10°C° 0.1 mm 6 m/s 762 mmHg 65%
    15:00 +10°C° 0 mm 5 m/s 762 mmHg 68%
    16:00 +10°C° 0 mm 5 m/s 763 mmHg 71%
    17:00 +11°C° 0 mm 4 m/s 763 mmHg 73%
    18:00 +10°C° 0 mm 4 m/s 764 mmHg 73%
    19:00 +10°C° 0 mm 4 m/s 764 mmHg 73%
    20:00 +10°C° 0 mm 4 m/s 765 mmHg 73%
    21:00 +10°C° 0 mm 3 m/s 765 mmHg 75%
    22:00 +10°C° 0 mm 3 m/s 765 mmHg 77%
    23:00 +9°C° 0 mm 3 m/s 765 mmHg 78%
    Voir plus